Вернуться в каталог

FENGYUN 1C DEB

АктивенSSO
NORAD 30436·DEBRIS·🇨🇳 China

Запущен May 10, 1999 с Taiyuan Satellite Launch Center

Loading…

Ближайшие Пролёты (ближайшие 24 часа)

TLE

СвежийSource: Space-Track

Эпоха: Sep 14, 2026, 15:38 UTC

1 30436U 99025AEX 26257.65154986  .00003577  00000-0  14754-2 0  9992
2 30436  98.4089 144.9712 0098808  47.2804 342.5304 14.24756447  3640

Отслеживайте FENGYUN 1C DEB в реальном времени с AllMySat

Download on the App Store